{"data":{"norad_id":66082,"intl_designator":"2025-235AA","name":"STARLINK-35011","alt_names":[],"object_type":"PAYLOAD","status":"ACTIVE","operator":null,"country":"US","launch_date":"2025-10-19","launch_site_code":"AFETR","launch_vehicle":null,"mission":null,"orbit_class":"UNKNOWN","rcs_meters":null,"size_class":null,"mass_kg":null,"dimensions":null,"purposes":["comms"],"wikipedia_slug":null,"has_3d_model":false,"image_url":null,"decayed_at":null,"tle_current":{"epoch":"2026-05-25T00:18:57.024000Z","epoch_age_seconds":84024,"freshness":"FRESH","line1":"1 66082U 25235AA  26145.01316000  .00018435  00000+0  60402-3 0  9993","line2":"2 66082  53.1616 250.2715 0000523 113.4422 246.6635 15.31716933 34610","mean_motion":15.31716933,"eccentricity":5.23e-5,"inclination_deg":53.1616,"raan_deg":250.2715,"arg_perigee_deg":113.4422,"mean_anomaly_deg":246.6635,"bstar":0.00060402,"rev_number":3461,"period_min":94.012148653318,"perigee_km":470.33132567182,"apogee_km":471.04771292574,"semimajor_km":6848.8265192988,"source":"CELESTRAK","updated_at":"2026-05-25T13:38:21.025583Z"}}}